Year,Month,Day,Hour,Minute,Value (Times are PST for temperature in C)
2006,06,23,00,00,11.00
2006,06,23,00,01,10.90
2006,06,23,00,02,10.90
2006,06,23,00,03,10.90
2006,06,23,00,04,10.90
2006,06,23,00,05,10.90
2006,06,23,00,06,10.90
2006,06,23,00,07,10.90
2006,06,23,00,08,10.90
2006,06,23,00,09,10.90
2006,06,23,00,10,10.90
2006,06,23,00,11,10.90
2006,06,23,00,12,10.90
2006,06,23,00,13,10.90
2006,06,23,00,14,10.90
2006,06,23,00,15,10.90
2006,06,23,00,16,10.90
2006,06,23,00,17,10.90
2006,06,23,00,18,10.90
2006,06,23,00,19,10.80
2006,06,23,00,20,10.80
2006,06,23,00,21,10.80
2006,06,23,00,22,10.80
2006,06,23,00,23,10.80
2006,06,23,00,24,10.80
2006,06,23,00,25,10.80
2006,06,23,00,26,10.70
2006,06,23,00,27,10.70
2006,06,23,00,28,10.70
2006,06,23,00,29,10.70
2006,06,23,00,30,10.70
2006,06,23,00,31,10.70
2006,06,23,00,32,10.70
2006,06,23,00,33,10.70
2006,06,23,00,34,10.70
2006,06,23,00,35,10.70
2006,06,23,00,36,10.70
2006,06,23,00,37,10.70
2006,06,23,00,38,10.70
2006,06,23,00,39,10.60
2006,06,23,00,40,10.60
2006,06,23,00,41,10.60
2006,06,23,00,42,10.60
2006,06,23,00,43,10.60
2006,06,23,00,44,10.60
2006,06,23,00,45,10.60
2006,06,23,00,46,10.60
2006,06,23,00,47,10.60
2006,06,23,00,48,10.60
2006,06,23,00,49,10.60
2006,06,23,00,50,10.60
2006,06,23,00,51,10.60
2006,06,23,00,52,10.60
2006,06,23,00,53,10.60
2006,06,23,00,54,10.60
2006,06,23,00,55,10.60
2006,06,23,00,56,10.60
2006,06,23,00,57,10.60
2006,06,23,00,58,10.60
2006,06,23,00,59,10.60
2006,06,23,01,00,10.60
2006,06,23,01,01,10.60
2006,06,23,01,02,10.60
2006,06,23,01,03,10.60
2006,06,23,01,04,10.60
2006,06,23,01,05,10.60
2006,06,23,01,06,10.60
2006,06,23,01,07,10.60
2006,06,23,01,08,10.60
2006,06,23,01,09,10.60
2006,06,23,01,10,10.60
2006,06,23,01,11,10.60
2006,06,23,01,12,10.60
2006,06,23,01,13,10.60
2006,06,23,01,14,10.60
2006,06,23,01,15,10.60
2006,06,23,01,16,10.60
2006,06,23,01,17,10.60
2006,06,23,01,18,10.60
2006,06,23,01,19,10.60
2006,06,23,01,20,10.60
2006,06,23,01,21,10.50
2006,06,23,01,22,10.40
2006,06,23,01,23,10.40
2006,06,23,01,24,10.40
2006,06,23,01,25,10.40
2006,06,23,01,26,10.40
2006,06,23,01,27,10.40
2006,06,23,01,28,10.40
2006,06,23,01,29,10.40
2006,06,23,01,30,10.40
2006,06,23,01,31,10.40
2006,06,23,01,32,10.40
2006,06,23,01,33,10.40
2006,06,23,01,34,10.40
2006,06,23,01,35,10.40
2006,06,23,01,36,10.40
2006,06,23,01,37,10.40
2006,06,23,01,38,10.40
2006,06,23,01,39,10.40
2006,06,23,01,40,10.40
2006,06,23,01,41,10.40
2006,06,23,01,42,10.40
2006,06,23,01,43,10.40
2006,06,23,01,44,10.40
2006,06,23,01,45,10.40
2006,06,23,01,46,10.40
2006,06,23,01,47,10.40
2006,06,23,01,48,10.40
2006,06,23,01,49,10.40
2006,06,23,01,50,10.40
2006,06,23,01,51,10.40
2006,06,23,01,52,10.40
2006,06,23,01,53,10.40
2006,06,23,01,54,10.40
2006,06,23,01,55,10.30
2006,06,23,01,56,10.30
2006,06,23,01,57,10.30
2006,06,23,01,58,10.30
2006,06,23,01,59,10.30
2006,06,23,02,00,10.30
2006,06,23,02,01,10.30
2006,06,23,02,02,10.30
2006,06,23,02,03,10.30
2006,06,23,02,04,10.30
2006,06,23,02,05,10.30
2006,06,23,02,06,10.30
2006,06,23,02,07,10.30
2006,06,23,02,08,10.30
2006,06,23,02,09,10.30
2006,06,23,02,10,10.30
2006,06,23,02,11,10.30
2006,06,23,02,12,10.20
2006,06,23,02,13,10.20
2006,06,23,02,14,10.20
2006,06,23,02,15,10.20
2006,06,23,02,16,10.20
2006,06,23,02,17,10.20
2006,06,23,02,18,10.20
2006,06,23,02,19,10.20
2006,06,23,02,20,10.20
2006,06,23,02,21,10.20
2006,06,23,02,22,10.20
2006,06,23,02,23,10.20
2006,06,23,02,24,10.20
2006,06,23,02,25,10.10
2006,06,23,02,26,10.10
2006,06,23,02,27,10.10
2006,06,23,02,28,10.10
2006,06,23,02,29,10.10
2006,06,23,02,30,10.10
2006,06,23,02,31,10.10
2006,06,23,02,32,10.10
2006,06,23,02,33,10.10
2006,06,23,02,34,10.10
2006,06,23,02,35,10.10
2006,06,23,02,36,10.10
2006,06,23,02,37,10.10
2006,06,23,02,38,10.10
2006,06,23,02,39,10.10
2006,06,23,02,40,10.10
2006,06,23,02,41,10.10
2006,06,23,02,42,10.10
2006,06,23,02,43,10.00
2006,06,23,02,44,9.90
2006,06,23,02,45,9.90
2006,06,23,02,46,9.90
2006,06,23,02,47,9.90
2006,06,23,02,48,9.90
2006,06,23,02,49,9.90
2006,06,23,02,50,9.90
2006,06,23,02,51,9.90
2006,06,23,02,52,9.90
2006,06,23,02,53,9.90
2006,06,23,02,54,9.90
2006,06,23,02,55,9.90
2006,06,23,02,56,9.90
2006,06,23,02,57,9.90
2006,06,23,02,58,9.90
2006,06,23,02,59,9.90
2006,06,23,03,00,9.90
2006,06,23,03,01,9.90
2006,06,23,03,02,9.90
2006,06,23,03,03,9.90
2006,06,23,03,04,9.90
2006,06,23,03,05,9.90
2006,06,23,03,06,9.90
2006,06,23,03,07,9.90
2006,06,23,03,08,9.90
2006,06,23,03,09,9.90
2006,06,23,03,10,9.90
2006,06,23,03,11,9.90
2006,06,23,03,12,9.90
2006,06,23,03,13,9.90
2006,06,23,03,14,9.90
2006,06,23,03,15,9.90
2006,06,23,03,16,9.90
2006,06,23,03,17,9.90
2006,06,23,03,18,9.90
2006,06,23,03,19,9.90
2006,06,23,03,20,9.90
2006,06,23,03,21,9.90
2006,06,23,03,22,9.90
2006,06,23,03,23,9.90
2006,06,23,03,24,9.90
2006,06,23,03,25,9.90
2006,06,23,03,26,9.90
2006,06,23,03,27,9.90
2006,06,23,03,28,9.90
2006,06,23,03,29,9.90
2006,06,23,03,30,9.90
2006,06,23,03,31,9.90
2006,06,23,03,32,9.90
2006,06,23,03,33,10.00
2006,06,23,03,34,10.10
2006,06,23,03,35,10.10
2006,06,23,03,36,10.10
2006,06,23,03,37,10.10
2006,06,23,03,38,10.10
2006,06,23,03,39,10.10
2006,06,23,03,40,10.00
2006,06,23,03,41,10.00
2006,06,23,03,42,10.10
2006,06,23,03,43,10.10
2006,06,23,03,44,10.10
2006,06,23,03,45,10.10
2006,06,23,03,46,10.10
2006,06,23,03,47,10.10
2006,06,23,03,48,10.10
2006,06,23,03,49,10.10
2006,06,23,03,50,10.10
2006,06,23,03,51,10.10
2006,06,23,03,52,10.10
2006,06,23,03,53,10.10
2006,06,23,03,54,10.10
2006,06,23,03,55,10.10
2006,06,23,03,56,10.00
2006,06,23,03,57,10.00
2006,06,23,03,58,10.00
2006,06,23,03,59,9.90
2006,06,23,04,00,9.90
2006,06,23,04,01,9.90
2006,06,23,04,02,9.90
2006,06,23,04,03,9.90
2006,06,23,04,04,9.90
2006,06,23,04,05,9.90
2006,06,23,04,06,9.90
2006,06,23,04,07,9.90
2006,06,23,04,08,9.90
2006,06,23,04,09,9.90
2006,06,23,04,10,9.90
2006,06,23,04,11,9.90
2006,06,23,04,12,9.90
2006,06,23,04,13,9.90
2006,06,23,04,14,9.90
2006,06,23,04,15,9.90
2006,06,23,04,16,9.90
2006,06,23,04,17,9.90
2006,06,23,04,18,9.90
2006,06,23,04,19,9.90
2006,06,23,04,20,9.90
2006,06,23,04,21,9.90
2006,06,23,04,22,9.90
2006,06,23,04,23,9.90
2006,06,23,04,24,9.90
2006,06,23,04,25,9.90
2006,06,23,04,26,9.90
2006,06,23,04,27,9.90
2006,06,23,04,28,9.90
2006,06,23,04,29,9.90
2006,06,23,04,30,9.90
2006,06,23,04,31,9.90
2006,06,23,04,32,9.90
2006,06,23,04,33,9.90
2006,06,23,04,34,9.90
2006,06,23,04,35,9.90
2006,06,23,04,36,9.90
2006,06,23,04,37,9.90
2006,06,23,04,38,9.90
2006,06,23,04,39,9.90
2006,06,23,04,40,9.90
2006,06,23,04,41,9.90
2006,06,23,04,42,9.90
2006,06,23,04,43,9.90
2006,06,23,04,44,9.90
2006,06,23,04,45,9.90
2006,06,23,04,46,9.90
2006,06,23,04,47,9.90
2006,06,23,04,48,9.90
2006,06,23,04,49,9.90
2006,06,23,04,50,9.90
2006,06,23,04,51,9.90
2006,06,23,04,52,9.90
2006,06,23,04,53,9.90
2006,06,23,04,54,9.90
2006,06,23,04,55,9.90
2006,06,23,04,56,9.90
2006,06,23,04,57,9.90
2006,06,23,04,58,9.90
2006,06,23,04,59,9.90
2006,06,23,05,00,9.90
2006,06,23,05,01,9.90
2006,06,23,05,02,9.90
2006,06,23,05,03,9.90
2006,06,23,05,04,9.90
2006,06,23,05,05,9.90
2006,06,23,05,06,9.90
2006,06,23,05,07,9.90
2006,06,23,05,08,9.90
2006,06,23,05,09,9.90
2006,06,23,05,10,9.90
2006,06,23,05,11,9.90
2006,06,23,05,12,9.90
2006,06,23,05,13,9.90
2006,06,23,05,14,9.90
2006,06,23,05,15,9.90
2006,06,23,05,16,9.90
2006,06,23,05,17,9.90
2006,06,23,05,18,9.90
2006,06,23,05,19,9.90
2006,06,23,05,20,9.90
2006,06,23,05,21,9.90
2006,06,23,05,22,10.00
2006,06,23,05,23,10.10
2006,06,23,05,24,10.10
2006,06,23,05,25,10.10
2006,06,23,05,26,10.10
2006,06,23,05,27,10.10
2006,06,23,05,28,10.10
2006,06,23,05,29,10.10
2006,06,23,05,30,10.10
2006,06,23,05,31,10.10
2006,06,23,05,32,10.10
2006,06,23,05,33,10.10
2006,06,23,05,34,10.10
2006,06,23,05,35,10.10
2006,06,23,05,36,10.10
2006,06,23,05,37,10.10
2006,06,23,05,38,10.10
2006,06,23,05,39,10.10
2006,06,23,05,40,10.10
2006,06,23,05,41,10.10
2006,06,23,05,42,10.10
2006,06,23,05,43,10.10
2006,06,23,05,44,10.10
2006,06,23,05,45,10.10
2006,06,23,05,46,10.10
2006,06,23,05,47,10.10
2006,06,23,05,48,10.10
2006,06,23,05,49,10.10
2006,06,23,05,50,10.10
2006,06,23,05,51,10.20
2006,06,23,05,52,10.20
2006,06,23,05,53,10.20
2006,06,23,05,54,10.20
2006,06,23,05,55,10.20
2006,06,23,05,56,10.20
2006,06,23,05,57,10.20
2006,06,23,05,58,10.30
2006,06,23,05,59,10.30
2006,06,23,06,00,10.30
2006,06,23,06,01,10.30
2006,06,23,06,02,10.30
2006,06,23,06,03,10.40
2006,06,23,06,04,10.40
2006,06,23,06,05,10.40
2006,06,23,06,06,10.40
2006,06,23,06,07,10.40
2006,06,23,06,08,10.40
2006,06,23,06,09,10.40
2006,06,23,06,10,10.40
2006,06,23,06,11,10.50
2006,06,23,06,12,10.60
2006,06,23,06,13,10.60
2006,06,23,06,14,10.60
2006,06,23,06,15,10.60
2006,06,23,06,16,10.60
2006,06,23,06,17,10.60
2006,06,23,06,18,10.60
2006,06,23,06,19,10.60
2006,06,23,06,20,10.70
2006,06,23,06,21,10.70
2006,06,23,06,22,10.70
2006,06,23,06,23,10.70
2006,06,23,06,24,10.80
2006,06,23,06,25,10.80
2006,06,23,06,26,10.80
2006,06,23,06,27,10.90
2006,06,23,06,28,10.90
2006,06,23,06,29,10.90
2006,06,23,06,30,10.90
2006,06,23,06,31,11.00
2006,06,23,06,32,11.10
2006,06,23,06,33,11.10
2006,06,23,06,34,11.10
2006,06,23,06,35,11.10
2006,06,23,06,36,11.10
2006,06,23,06,37,11.20
2006,06,23,06,38,11.20
2006,06,23,06,39,11.20
2006,06,23,06,40,11.30
2006,06,23,06,41,11.30
2006,06,23,06,42,11.30
2006,06,23,06,43,11.40
2006,06,23,06,44,11.40
2006,06,23,06,45,11.40
2006,06,23,06,46,11.40
2006,06,23,06,47,11.40
2006,06,23,06,48,11.50
2006,06,23,06,49,11.60
2006,06,23,06,50,11.60
2006,06,23,06,51,11.60
2006,06,23,06,52,11.60
2006,06,23,06,53,11.60
2006,06,23,06,54,11.70
2006,06,23,06,55,11.70
2006,06,23,06,56,11.70
2006,06,23,06,57,11.80
2006,06,23,06,58,11.80
2006,06,23,06,59,11.80
2006,06,23,07,00,11.80
2006,06,23,07,01,11.90
2006,06,23,07,02,11.90
2006,06,23,07,03,12.00
2006,06,23,07,04,12.00
2006,06,23,07,05,12.10
2006,06,23,07,06,12.10
2006,06,23,07,07,12.20
2006,06,23,07,08,12.30
2006,06,23,07,09,12.30
2006,06,23,07,10,12.30
2006,06,23,07,11,12.40
2006,06,23,07,12,12.40
2006,06,23,07,13,12.50
2006,06,23,07,14,12.60
2006,06,23,07,15,12.60
2006,06,23,07,16,12.70
2006,06,23,07,17,12.80
2006,06,23,07,18,12.80
2006,06,23,07,19,12.90
2006,06,23,07,20,12.90
2006,06,23,07,21,13.00
2006,06,23,07,22,13.10
2006,06,23,07,23,13.20
2006,06,23,07,24,13.30
2006,06,23,07,25,13.30
2006,06,23,07,26,13.40
2006,06,23,07,27,13.50
2006,06,23,07,28,13.70
2006,06,23,07,29,13.80
2006,06,23,07,30,14.00
2006,06,23,07,31,14.10
2006,06,23,07,32,14.40
2006,06,23,07,33,14.60
2006,06,23,07,34,14.60
2006,06,23,07,35,14.80
2006,06,23,07,36,15.00
2006,06,23,07,37,15.10
2006,06,23,07,38,15.20
2006,06,23,07,39,15.30
2006,06,23,07,40,15.30
2006,06,23,07,41,15.40
2006,06,23,07,42,15.50
2006,06,23,07,43,15.50
2006,06,23,07,44,15.60
2006,06,23,07,45,15.80
2006,06,23,07,46,15.90
2006,06,23,07,47,16.10
2006,06,23,07,48,16.20
2006,06,23,07,49,16.30
2006,06,23,07,50,16.40
2006,06,23,07,51,16.40
2006,06,23,07,52,16.40
2006,06,23,07,53,16.40
2006,06,23,07,54,16.40
2006,06,23,07,55,16.40
2006,06,23,07,56,16.40
2006,06,23,07,57,16.40
2006,06,23,07,58,16.40
2006,06,23,07,59,16.40
2006,06,23,08,00,16.40
2006,06,23,08,01,16.50
2006,06,23,08,02,16.60
2006,06,23,08,03,16.60
2006,06,23,08,04,16.70
2006,06,23,08,05,16.60
2006,06,23,08,06,16.50
2006,06,23,08,07,16.40
2006,06,23,08,08,16.40
2006,06,23,08,09,16.40
2006,06,23,08,10,16.40
2006,06,23,08,11,16.40
2006,06,23,08,12,16.50
2006,06,23,08,13,16.50
2006,06,23,08,14,16.40
2006,06,23,08,15,16.50
2006,06,23,08,16,16.60
2006,06,23,08,17,16.60
2006,06,23,08,18,16.70
2006,06,23,08,19,16.70
2006,06,23,08,20,16.70
2006,06,23,08,21,16.70
2006,06,23,08,22,16.80
2006,06,23,08,23,16.80
2006,06,23,08,24,16.90
2006,06,23,08,25,16.90
2006,06,23,08,26,17.00
2006,06,23,08,27,17.00
2006,06,23,08,28,17.00
2006,06,23,08,29,17.00
2006,06,23,08,30,17.00
2006,06,23,08,31,17.00
2006,06,23,08,32,17.10
2006,06,23,08,33,17.10
2006,06,23,08,34,17.10
2006,06,23,08,35,17.10
2006,06,23,08,36,17.10
2006,06,23,08,37,17.00
2006,06,23,08,38,16.90
2006,06,23,08,39,16.70
2006,06,23,08,40,16.70
2006,06,23,08,41,16.70
2006,06,23,08,42,16.70
2006,06,23,08,43,16.70
2006,06,23,08,44,16.70
2006,06,23,08,45,16.70
2006,06,23,08,46,16.70
2006,06,23,08,47,16.60
2006,06,23,08,48,16.50
2006,06,23,08,49,16.40
2006,06,23,08,50,16.30
2006,06,23,08,51,16.20
2006,06,23,08,52,16.20
2006,06,23,08,53,16.10
2006,06,23,08,54,16.00
2006,06,23,08,55,16.00
2006,06,23,08,56,16.10
2006,06,23,08,57,16.10
2006,06,23,08,58,16.10
2006,06,23,08,59,16.10
2006,06,23,09,00,16.10
2006,06,23,09,01,16.00
2006,06,23,09,02,15.90
2006,06,23,09,03,15.80
2006,06,23,09,04,15.80
2006,06,23,09,05,15.80
2006,06,23,09,06,15.90
2006,06,23,09,07,15.90
2006,06,23,09,08,15.90
2006,06,23,09,09,16.00
2006,06,23,09,10,16.10
2006,06,23,09,11,16.00
2006,06,23,09,12,15.90
2006,06,23,09,13,15.80
2006,06,23,09,14,15.80
2006,06,23,09,15,15.80
2006,06,23,09,16,15.90
2006,06,23,09,17,15.90
2006,06,23,09,18,15.90
2006,06,23,09,19,16.00
2006,06,23,09,20,16.10
2006,06,23,09,21,15.90
2006,06,23,09,22,15.80
2006,06,23,09,23,15.80
2006,06,23,09,24,15.80
2006,06,23,09,25,15.70
2006,06,23,09,26,15.70
2006,06,23,09,27,15.70
2006,06,23,09,28,15.70
2006,06,23,09,29,15.80
2006,06,23,09,30,15.80
2006,06,23,09,31,15.80
2006,06,23,09,32,15.90
2006,06,23,09,33,15.90
2006,06,23,09,34,15.90
2006,06,23,09,35,16.00
2006,06,23,09,36,16.10
2006,06,23,09,37,16.20
2006,06,23,09,38,16.30
2006,06,23,09,39,16.50
2006,06,23,09,40,16.70
2006,06,23,09,41,16.70
2006,06,23,09,42,16.80
2006,06,23,09,43,16.80
2006,06,23,09,44,16.80
2006,06,23,09,45,16.70
2006,06,23,09,46,16.50
2006,06,23,09,47,16.40
2006,06,23,09,48,16.40
2006,06,23,09,49,16.20
2006,06,23,09,50,16.20
2006,06,23,09,51,16.20
2006,06,23,09,52,16.20
2006,06,23,09,53,16.20
2006,06,23,09,54,16.20
2006,06,23,09,55,16.20
2006,06,23,09,56,16.10
2006,06,23,09,57,16.10
2006,06,23,09,58,16.10
2006,06,23,09,59,16.10
2006,06,23,10,00,16.10
2006,06,23,10,01,16.10
2006,06,23,10,02,16.10
2006,06,23,10,03,16.10
2006,06,23,10,04,16.20
2006,06,23,10,05,16.20
2006,06,23,10,06,16.30
2006,06,23,10,07,16.30
2006,06,23,10,08,16.30
2006,06,23,10,09,16.40
2006,06,23,10,10,16.40
2006,06,23,10,11,16.40
2006,06,23,10,12,16.40
2006,06,23,10,13,16.40
2006,06,23,10,14,16.40
2006,06,23,10,15,16.40
2006,06,23,10,16,16.40
2006,06,23,10,17,16.30
2006,06,23,10,18,16.30
2006,06,23,10,19,16.30
2006,06,23,10,20,16.40
2006,06,23,10,21,16.60
2006,06,23,10,22,16.70
2006,06,23,10,23,16.90
2006,06,23,10,24,17.00
2006,06,23,10,25,17.00
2006,06,23,10,26,17.10
2006,06,23,10,27,17.20
2006,06,23,10,28,17.20
2006,06,23,10,29,17.20
2006,06,23,10,30,17.00
2006,06,23,10,31,16.90
2006,06,23,10,32,16.80
2006,06,23,10,33,16.80
2006,06,23,10,34,16.90
2006,06,23,10,35,17.00
2006,06,23,10,36,17.10
2006,06,23,10,37,17.10
2006,06,23,10,38,17.20
2006,06,23,10,39,17.30
2006,06,23,10,40,17.20
2006,06,23,10,41,17.20
2006,06,23,10,42,17.20
2006,06,23,10,43,17.20
2006,06,23,10,44,17.20
2006,06,23,10,45,17.10
2006,06,23,10,46,17.10
2006,06,23,10,47,17.30
2006,06,23,10,48,17.30
2006,06,23,10,49,16.90
2006,06,23,10,50,16.70
2006,06,23,10,51,16.60
2006,06,23,10,52,16.60
2006,06,23,10,53,16.60
2006,06,23,10,54,16.40
2006,06,23,10,55,16.30
2006,06,23,10,56,16.30
2006,06,23,10,57,16.30
2006,06,23,10,58,16.40
2006,06,23,10,59,16.40
2006,06,23,11,00,16.30
2006,06,23,11,01,16.30
2006,06,23,11,02,16.40
2006,06,23,11,03,16.60
2006,06,23,11,04,16.60
2006,06,23,11,05,16.50
2006,06,23,11,06,16.40
2006,06,23,11,07,16.40
2006,06,23,11,08,16.40
2006,06,23,11,09,16.40
2006,06,23,11,10,16.30
2006,06,23,11,11,16.40
2006,06,23,11,12,16.40
2006,06,23,11,13,16.50
2006,06,23,11,14,16.60
2006,06,23,11,15,16.60
2006,06,23,11,16,16.60
2006,06,23,11,17,16.60
2006,06,23,11,18,16.40
2006,06,23,11,19,16.40
2006,06,23,11,20,16.60
2006,06,23,11,21,16.70
2006,06,23,11,22,16.70
2006,06,23,11,23,16.80
2006,06,23,11,24,16.60
2006,06,23,11,25,16.50
2006,06,23,11,26,16.50
2006,06,23,11,27,16.60
2006,06,23,11,28,16.70
2006,06,23,11,29,16.70
2006,06,23,11,30,16.60
2006,06,23,11,31,16.50
2006,06,23,11,32,16.40
2006,06,23,11,33,16.40
2006,06,23,11,34,16.60
2006,06,23,11,35,16.70
2006,06,23,11,36,16.90
2006,06,23,11,37,17.00
2006,06,23,11,38,17.10
2006,06,23,11,39,17.20
2006,06,23,11,40,17.20
2006,06,23,11,41,17.10
2006,06,23,11,42,17.00
2006,06,23,11,43,17.00
2006,06,23,11,44,17.00
2006,06,23,11,45,17.10
2006,06,23,11,46,17.10
2006,06,23,11,47,17.00
2006,06,23,11,48,17.00
2006,06,23,11,49,17.00
2006,06,23,11,50,17.00
2006,06,23,11,51,17.00
2006,06,23,11,52,17.10
2006,06,23,11,53,17.10
2006,06,23,11,54,16.90
2006,06,23,11,55,16.80
2006,06,23,11,56,16.80
2006,06,23,11,57,16.70
2006,06,23,11,58,16.60
2006,06,23,11,59,16.40
2006,06,23,12,00,16.40
2006,06,23,12,01,16.50
2006,06,23,12,02,16.60
2006,06,23,12,03,16.40
2006,06,23,12,04,16.50
2006,06,23,12,05,16.50
2006,06,23,12,06,16.40
2006,06,23,12,07,16.30
2006,06,23,12,08,16.40
2006,06,23,12,09,16.40
2006,06,23,12,10,16.40
2006,06,23,12,11,16.40
2006,06,23,12,12,16.40
2006,06,23,12,13,16.50
2006,06,23,12,14,16.50
2006,06,23,12,15,16.40
2006,06,23,12,16,16.30
2006,06,23,12,17,16.30
2006,06,23,12,18,16.40
2006,06,23,12,19,16.50
2006,06,23,12,20,16.70
2006,06,23,12,21,16.90
2006,06,23,12,22,17.00
2006,06,23,12,23,17.10
2006,06,23,12,24,17.10
2006,06,23,12,25,17.30
2006,06,23,12,26,17.10
2006,06,23,12,27,17.00
2006,06,23,12,28,17.00
2006,06,23,12,29,16.90
2006,06,23,12,30,16.80
2006,06,23,12,31,16.70
2006,06,23,12,32,16.70
2006,06,23,12,33,16.70
2006,06,23,12,34,16.80
2006,06,23,12,35,16.80
2006,06,23,12,36,16.90
2006,06,23,12,37,16.90
2006,06,23,12,38,16.90
2006,06,23,12,39,16.90
2006,06,23,12,40,17.10
2006,06,23,12,41,17.30
2006,06,23,12,42,17.20
2006,06,23,12,43,17.20
2006,06,23,12,44,17.20
2006,06,23,12,45,17.10
2006,06,23,12,46,17.00
2006,06,23,12,47,17.00
2006,06,23,12,48,17.00
2006,06,23,12,49,17.10
2006,06,23,12,50,17.20
2006,06,23,12,51,17.30
2006,06,23,12,52,17.30
2006,06,23,12,53,17.40
2006,06,23,12,54,17.60
2006,06,23,12,55,17.70
2006,06,23,12,56,17.70
2006,06,23,12,57,17.90
2006,06,23,12,58,17.90
2006,06,23,12,59,18.00
2006,06,23,13,00,17.90
2006,06,23,13,01,17.90
2006,06,23,13,02,17.90
2006,06,23,13,03,17.80
2006,06,23,13,04,17.70
2006,06,23,13,05,17.70
2006,06,23,13,06,17.70
2006,06,23,13,07,17.70
2006,06,23,13,08,17.80
2006,06,23,13,09,18.00
2006,06,23,13,10,18.10
2006,06,23,13,11,18.20
2006,06,23,13,12,18.20
2006,06,23,13,13,18.20
2006,06,23,13,14,18.20
2006,06,23,13,15,18.10
2006,06,23,13,16,18.10
2006,06,23,13,17,18.10
2006,06,23,13,18,18.10
2006,06,23,13,19,18.20
2006,06,23,13,20,18.20
2006,06,23,13,21,18.20
2006,06,23,13,22,18.20
2006,06,23,13,23,18.30
2006,06,23,13,24,18.30
2006,06,23,13,25,18.30
2006,06,23,13,26,18.20
2006,06,23,13,27,18.20
2006,06,23,13,28,18.20
2006,06,23,13,29,18.20
2006,06,23,13,30,18.00
2006,06,23,13,31,17.90
2006,06,23,13,32,17.90
2006,06,23,13,33,17.90
2006,06,23,13,34,18.00
2006,06,23,13,35,18.20
2006,06,23,13,36,18.30
2006,06,23,13,37,18.30
2006,06,23,13,38,18.40
2006,06,23,13,39,18.50
2006,06,23,13,40,18.50
2006,06,23,13,41,18.50
2006,06,23,13,42,18.40
2006,06,23,13,43,18.50
2006,06,23,13,44,18.60
2006,06,23,13,45,18.50
2006,06,23,13,46,18.30
2006,06,23,13,47,18.20
2006,06,23,13,48,18.20
2006,06,23,13,49,18.30
2006,06,23,13,50,18.40
2006,06,23,13,51,18.50
2006,06,23,13,52,18.50
2006,06,23,13,53,18.60
2006,06,23,13,54,18.70
2006,06,23,13,55,18.60
2006,06,23,13,56,18.60
2006,06,23,13,57,18.50
2006,06,23,13,58,18.40
2006,06,23,13,59,18.20
2006,06,23,14,00,18.20
2006,06,23,14,01,18.20
2006,06,23,14,02,18.20
2006,06,23,14,03,18.20
2006,06,23,14,04,18.30
2006,06,23,14,05,18.30
2006,06,23,14,06,18.40
2006,06,23,14,07,18.40
2006,06,23,14,08,18.40
2006,06,23,14,09,18.20
2006,06,23,14,10,18.20
2006,06,23,14,11,18.20
2006,06,23,14,12,18.20
2006,06,23,14,13,18.10
2006,06,23,14,14,18.00
2006,06,23,14,15,17.90
2006,06,23,14,16,18.10
2006,06,23,14,17,18.10
2006,06,23,14,18,18.10
2006,06,23,14,19,18.00
2006,06,23,14,20,18.00
2006,06,23,14,21,18.20
2006,06,23,14,22,18.20
2006,06,23,14,23,18.10
2006,06,23,14,24,18.10
2006,06,23,14,25,18.10
2006,06,23,14,26,18.10
2006,06,23,14,27,18.10
2006,06,23,14,28,18.10
2006,06,23,14,29,18.20
2006,06,23,14,30,18.20
2006,06,23,14,31,18.30
2006,06,23,14,32,18.40
2006,06,23,14,33,18.50
2006,06,23,14,34,18.60
2006,06,23,14,35,18.70
2006,06,23,14,36,18.70
2006,06,23,14,37,18.70
2006,06,23,14,38,18.80
2006,06,23,14,39,18.80
2006,06,23,14,40,18.80
2006,06,23,14,41,18.70
2006,06,23,14,42,18.70
2006,06,23,14,43,18.70
2006,06,23,14,44,18.70
2006,06,23,14,45,18.80
2006,06,23,14,46,18.80
2006,06,23,14,47,18.90
2006,06,23,14,48,18.90
2006,06,23,14,49,18.90
2006,06,23,14,50,18.90
2006,06,23,14,51,18.90
2006,06,23,14,52,18.80
2006,06,23,14,53,18.80
2006,06,23,14,54,18.90
2006,06,23,14,55,18.90
2006,06,23,14,56,18.90
2006,06,23,14,57,19.00
2006,06,23,14,58,19.10
2006,06,23,14,59,19.10
2006,06,23,15,00,19.10
2006,06,23,15,01,19.10
2006,06,23,15,02,19.20
2006,06,23,15,03,19.40
2006,06,23,15,04,19.40
2006,06,23,15,05,19.50
2006,06,23,15,06,19.50
2006,06,23,15,07,19.50
2006,06,23,15,08,19.60
2006,06,23,15,09,19.60
2006,06,23,15,10,19.70
2006,06,23,15,11,19.70
2006,06,23,15,12,19.80
2006,06,23,15,13,19.90
2006,06,23,15,14,20.00
2006,06,23,15,15,20.10
2006,06,23,15,16,20.20
2006,06,23,15,17,20.40
2006,06,23,15,18,20.50
2006,06,23,15,19,20.70
2006,06,23,15,20,20.80
2006,06,23,15,21,20.90
2006,06,23,15,22,21.00
2006,06,23,15,23,21.00
2006,06,23,15,24,21.00
2006,06,23,15,25,21.00
2006,06,23,15,26,21.00
2006,06,23,15,27,21.00
2006,06,23,15,28,21.00
2006,06,23,15,29,21.00
2006,06,23,15,30,20.90
2006,06,23,15,31,20.90
2006,06,23,15,32,21.00
2006,06,23,15,33,21.10
2006,06,23,15,34,21.10
2006,06,23,15,35,21.10
2006,06,23,15,36,21.00
2006,06,23,15,37,21.00
2006,06,23,15,38,20.90
2006,06,23,15,39,20.90
2006,06,23,15,40,20.80
2006,06,23,15,41,20.80
2006,06,23,15,42,20.70
2006,06,23,15,43,20.70
2006,06,23,15,44,20.70
2006,06,23,15,45,20.70
2006,06,23,15,46,20.70
2006,06,23,15,47,20.70
2006,06,23,15,48,20.80
2006,06,23,15,49,21.00
2006,06,23,15,50,21.00
2006,06,23,15,51,21.10
2006,06,23,15,52,21.10
2006,06,23,15,53,21.20
2006,06,23,15,54,21.10
2006,06,23,15,55,21.10
2006,06,23,15,56,21.20
2006,06,23,15,57,21.30
2006,06,23,15,58,21.30
2006,06,23,15,59,21.40
2006,06,23,16,00,21.50
2006,06,23,16,01,21.60
2006,06,23,16,02,21.60
2006,06,23,16,03,21.50
2006,06,23,16,04,21.50
2006,06,23,16,05,21.60
2006,06,23,16,06,21.60
2006,06,23,16,07,21.60
2006,06,23,16,08,21.60
2006,06,23,16,09,21.70
2006,06,23,16,10,21.70
2006,06,23,16,11,21.90
2006,06,23,16,12,21.90
2006,06,23,16,13,21.90
2006,06,23,16,14,21.80
2006,06,23,16,15,21.70
2006,06,23,16,16,21.70
2006,06,23,16,17,21.70
2006,06,23,16,18,21.70
2006,06,23,16,19,21.70
2006,06,23,16,20,21.60
2006,06,23,16,21,21.70
2006,06,23,16,22,21.70
2006,06,23,16,23,21.70
2006,06,23,16,24,21.60
2006,06,23,16,25,21.60
2006,06,23,16,26,21.60
2006,06,23,16,27,21.40
2006,06,23,16,28,21.40
2006,06,23,16,29,21.50
2006,06,23,16,30,21.60
2006,06,23,16,31,21.60
2006,06,23,16,32,21.60
2006,06,23,16,33,21.70
2006,06,23,16,34,21.70
2006,06,23,16,35,21.70
2006,06,23,16,36,21.70
2006,06,23,16,37,21.90
2006,06,23,16,38,21.90
2006,06,23,16,39,22.00
2006,06,23,16,40,22.00
2006,06,23,16,41,22.00
2006,06,23,16,42,21.90
2006,06,23,16,43,21.80
2006,06,23,16,44,21.90
2006,06,23,16,45,21.80
2006,06,23,16,46,21.90
2006,06,23,16,47,21.90
2006,06,23,16,48,21.90
2006,06,23,16,49,21.90
2006,06,23,16,50,21.80
2006,06,23,16,51,21.70
2006,06,23,16,52,21.70
2006,06,23,16,53,21.60
2006,06,23,16,54,21.60
2006,06,23,16,55,21.70
2006,06,23,16,56,21.80
2006,06,23,16,57,21.80
2006,06,23,16,58,21.90
2006,06,23,16,59,22.00
2006,06,23,17,00,22.10
2006,06,23,17,01,22.00
2006,06,23,17,02,22.00
2006,06,23,17,03,21.90
2006,06,23,17,04,21.90
2006,06,23,17,05,21.90
2006,06,23,17,06,21.80
2006,06,23,17,07,21.70
2006,06,23,17,08,21.60
2006,06,23,17,09,21.60
2006,06,23,17,10,21.60
2006,06,23,17,11,21.60
2006,06,23,17,12,21.50
2006,06,23,17,13,21.40
2006,06,23,17,14,21.40
2006,06,23,17,15,21.40
2006,06,23,17,16,21.30
2006,06,23,17,17,21.30
2006,06,23,17,18,21.30
2006,06,23,17,19,21.30
2006,06,23,17,20,21.30
2006,06,23,17,21,21.30
2006,06,23,17,22,21.30
2006,06,23,17,23,21.30
2006,06,23,17,24,21.30
2006,06,23,17,25,21.30